CDT,Max TemperatureF,Mean TemperatureF,Min TemperatureF,Max Dew PointF,MeanDew PointF,Min DewpointF,Max Humidity, Mean Humidity, Min Humidity, Max Sea Level PressureIn, Mean Sea Level PressureIn, Min Sea Level PressureIn, Max VisibilityMiles, Mean VisibilityMiles, Min VisibilityMiles, Max Wind SpeedMPH, Mean Wind SpeedMPH, Max Gust SpeedMPH,PrecipitationIn, CloudCover, Events, WindDirDegrees
2012-10-1,62,60,57,63,59,57,100,100,94,29.78,29.64,29.53,10,7,1,21,7,30,1.21,8,Rain,39
2012-10-2,59,57,55,59,57,55,100,100,99,29.97,29.77,29.65,10,8,2,12,4,,0.03,8,,270
2012-10-3,74,62,51,56,53,49,100,75,41,30.16,30.07,29.98,10,10,10,10,3,,0.00,0,,190
2012-10-4,79,66,54,63,59,54,100,79,49,30.26,30.20,30.16,10,10,10,12,4,,0.00,0,,212
2012-10-5,79,62,46,66,55,46,100,88,51,30.18,30.09,29.96,10,10,10,14,6,20,0.04,5,Rain,225
2012-10-6,58,49,41,46,40,30,100,82,34,30.23,30.16,30.11,10,10,5,14,5,20,0.12,6,Rain,22
2012-10-7,58,50,44,39,36,32,79,64,41,30.25,30.20,30.17,10,10,10,8,2,,0.00,4,,318
2012-10-8,61,50,41,42,36,31,91,61,34,30.25,30.19,30.14,10,9,2,4,0,,0.00,2,,50
2012-10-9,65,52,38,46,42,38,100,73,43,30.18,30.10,30.01,10,10,10,10,2,,0.00,0,,200
2012-10-10,62,52,40,52,41,31,97,65,34,30.27,30.16,30.03,10,10,10,12,5,20,0.00,4,,252
2012-10-11,61,48,34,48,38,34,99,73,42,30.30,30.26,30.20,10,8,2,9,2,,0.00,3,,200
2012-10-12,61,56,51,57,54,48,100,95,72,30.33,30.26,30.18,10,8,2,13,4,,0.27,7,Rain-Thunderstorm,56
2012-10-13,79,64,50,67,59,50,100,93,61,30.27,30.19,30.02,10,8,2,17,6,23,0.00,5,,148
2012-10-14,74,68,58,68,64,55,97,81,64,30.00,29.92,29.83,10,10,10,30,17,39,0.02,4,,203
2012-10-15,71,60,48,56,48,42,100,80,35,30.03,29.99,29.92,10,7,0,13,3,17,0.00,0,Fog,271
2012-10-16,75,60,44,55,50,45,100,74,42,30.01,29.92,29.81,10,10,10,13,4,,0.00,0,,169
2012-10-17,77,66,55,59,52,45,100,70,33,29.83,29.67,29.51,10,8,2,24,12,37,0.24,3,Rain-Thunderstorm,203
2012-10-18,67,56,46,59,43,28,100,68,27,29.76,29.72,29.60,10,9,7,22,11,32,0.01,2,,230
2012-10-19,57,50,44,43,39,35,74,60,50,29.84,29.73,29.66,10,10,10,17,10,,0.00,5,,243
2012-10-20,64,56,47,47,45,43,93,72,48,30.00,29.93,29.83,10,10,10,13,6,16,0.00,5,,251
2012-10-21,79,62,45,57,50,45,99,65,46,30.10,30.05,30.00,10,10,10,10,4,,0.00,2,,181
2012-10-22,81,69,57,54,52,48,84,56,35,30.14,30.09,30.06,10,10,10,18,8,,0.00,2,,193
2012-10-23,80,67,55,54,50,47,82,57,33,30.12,30.06,30.01,10,10,7,16,5,21,0.00,0,,194
2012-10-24,80,66,53,58,54,50,93,65,43,30.13,30.07,30.02,10,9,4,13,4,,0.00,0,,180
2012-10-25,80,68,55,59,56,54,94,67,43,30.05,30.00,29.95,10,10,10,17,7,22,0.00,0,,182
2012-10-26,64,53,42,57,45,41,100,96,75,30.19,30.16,29.99,10,9,4,9,5,18,0.27,8,Rain,15
2012-10-27,54,48,42,42,38,34,91,73,49,30.17,30.13,30.07,10,10,10,8,5,,0.00,6,,18
2012-10-28,55,46,38,36,33,30,91,64,40,30.15,30.11,30.08,10,10,10,8,4,18,0.00,1,,351
2012-10-29,55,44,34,32,28,23,86,56,29,30.18,30.10,29.98,10,10,10,12,4,21,0.00,0,,319
2012-10-30,56,48,39,28,23,16,60,43,21,29.96,29.87,29.80,10,10,10,18,11,29,0.00,0,,298
2012-10-31,57,44,31,32,24,18,83,51,26,29.98,29.92,29.88,10,10,10,15,7,20,0.00,0,,273